1487415600.84,39295,12.13,73238.5,-5.27,-16.31,-21.03,0,*51
1487415602.11,39296,12.13,73232.0,-5.29,-15.81,-19.57,0,*5E
1487415603.39,39297,12.13,73238.0,-5.27,-15.57,-18.89,0,*58
1487415604.67,39298,12.13,73236.3,-5.27,-15.35,-19.41,0,*56
1487415605.91,39299,12.13,73234.5,-5.29,-15.63,-18.35,0,*58
1487415607.17,39300,12.13,73232.5,-5.31,-14.65,-16.69,0,*50
1487415608.42,39301,12.13,73232.8,-5.29,-14.05,-15.11,0,*52
1487415609.63,39302,12.13,73226.0,-5.29,-13.73,-14.33,0,*56
1487415610.89,39303,12.13,73224.3,-5.31,-13.01,-13.47,0,*5F
1487415612.13,39304,12.13,73230.3,-5.31,-13.07,-13.51,0,*59
1487415613.36,39305,12.13,73232.5,-5.29,-12.03,-12.61,0,*56
1487415614.62,39306,12.13,73232.8,-5.27,-12.43,-13.29,0,*52
1487415615.83,39307,12.13,73236.3,-5.25,-12.29,-13.15,0,*52
1487415617.06,39308,12.13,73236.5,-5.27,-12.47,-13.55,0,*53
1487415618.33,39309,12.13,73240.8,-5.29,-12.61,-14.01,0,*5E
1487415619.54,39310,12.13,73240.3,-5.29,-13.07,-14.37,0,*52
1487415620.8,39311,12.13,73240.0,-5.29,-12.75,-13.87,0,*5B
1487415622.03,39312,12.13,73236.0,-5.29,-12.65,-13.47,0,*55
1487415623.27,39313,12.13,73234.3,-5.29,-12.75,-13.47,0,*55
1487415624.48,39314,12.13,73236.5,-5.29,-12.39,-13.23,0,*58
1487415625.71,39315,12.13,73236.8,-5.29,-12.89,-13.87,0,*5C
1487415626.94,39316,12.13,73236.3,-5.29,-12.65,-13.93,0,*58
1487415628.21,39317,12.13,73240.3,-5.29,-12.61,-13.61,0,*50
1487415629.43,39318,12.13,73238.8,-5.29,-12.47,-13.19,0,*54
1487415630.64,39319,12.13,73242.5,-5.25,-12.43,-13.19,0,*5D
1487415631.88,39320,12.13,73240.3,-5.27,-12.29,-13.11,0,*51
1487415633.12,39321,12.13,73242.5,-5.25,-12.15,-12.97,0,*52
1487415634.36,39322,12.13,73242.8,-5.27,-12.21,-13.15,0,*5F
1487415635.64,39323,12.13,73242.8,-5.27,-12.35,-13.61,0,*58
1487415636.9,39324,12.13,73238.8,-5.27,-12.97,-14.55,0,*57
1487415638.17,39325,12.13,73240.8,-5.25,-12.75,-14.83,0,*53
1487415639.38,39326,12.13,73240.8,-5.25,-12.89,-15.15,0,*5D
1487415640.61,39327,12.13,73240.8,-5.25,-13.47,-16.23,0,*59
1487415641.9,39328,12.13,73240.5,-5.27,-14.05,-17.25,0,*52
1487415643.17,39329,12.13,73238.8,-5.25,-13.97,-17.21,0,*59
1487415644.44,39330,12.13,73242.0,-5.25,-13.83,-17.25,0,*50
1487415645.67,39331,12.13,73240.8,-5.27,-14.29,-18.41,0,*59
1487415646.9,39332,12.13,73240.0,-5.27,-14.29,-18.69,0,*50
1487415648.17,39333,12.13,73240.0,-5.25,-14.83,-19.85,0,*50
1487415649.42,39334,12.13,73238.5,-5.27,-15.01,-20.29,0,*52
1487415650.71,39335,12.13,73238.0,-5.27,-15.89,-22.77,0,*5A
1487415651.94,39336,12.13,73236.8,-5.27,-16.45,-24.93,0,*56
1487415653.2,39337,12.13,73240.3,-5.27,-17.25,-26.65,0,*5B
1487415654.43,39338,12.13,73240.0,-5.25,-17.63,-26.65,0,*54
1487415655.69,39339,12.13,73242.3,-5.25,-17.63,-25.03,0,*56
1487415656.95,39340,12.13,73238.3,-5.27,-17.55,-22.63,0,*5E
1487415658.18,39341,12.13,73238.0,-5.25,-16.31,-21.09,0,*51
1487415659.41,39342,12.13,73240.8,-5.25,-15.95,-20.79,0,*59
1487415660.65,39343,12.13,73238.5,-5.21,-15.71,-20.99,0,*58
1487415661.89,39344,12.13,73236.8,-5.25,-16.17,-21.47,0,*5A
1487415663.13,39345,12.13,73240.8,-5.25,-15.89,-20.29,0,*56
1487415664.36,39346,12.13,73240.5,-5.25,-15.49,-18.93,0,*53
1487415665.56,39347,12.13,73238.8,-5.21,-15.67,-18.83,0,*5B
1487415666.8,39348,12.13,73242.0,-5.19,-15.15,-18.11,0,*51
1487415668.02,39349,12.13,73236.8,-5.21,-15.29,-18.73,0,*50
1487415669.22,39350,12.13,73238.3,-5.21,-15.11,-18.49,0,*5A
1487415670.45,39351,12.13,73236.3,-5.19,-15.67,-19.47,0,*5E
1487415671.66,39352,12.13,73236.0,-5.21,-15.11,-19.17,0,*52
1487415672.89,39353,12.13,73236.5,-5.19,-15.15,-18.65,0,*58
1487415674.13,39354,12.13,73238.3,-5.21,-15.25,-17.97,0,*55
1487415675.39,39355,12.13,73238.8,-5.21,-14.79,-17.03,0,*51
1487415676.66,39356,12.13,73236.8,-5.19,-14.51,-16.79,0,*5F
1487415677.88,39357,12.13,73238.3,-5.21,-14.15,-16.79,0,*55
1487415679.14,39358,12.13,73238.3,-5.19,-13.93,-16.69,0,*59
1487415680.37,39359,12.13,73240.0,-5.19,-13.93,-17.31,0,*54
1487415681.59,39360,12.13,73238.0,-5.21,-14.23,-17.83,0,*50
1487415682.86,39361,12.13,73232.8,-5.19,-14.43,-17.35,0,*51
1487415684.09,39362,12.13,73236.0,-5.19,-14.37,-16.79,0,*58
1487415685.36,39363,12.13,73238.8,-5.19,-14.43,-16.79,0,*5A
1487415686.63,39364,12.13,73238.5,-5.19,-14.15,-16.17,0,*56
1487415687.89,39365,12.13,73236.0,-5.19,-14.29,-16.13,0,*5C
1487415689.12,39366,12.13,73238.3,-5.17,-13.47,-14.97,0,*50
1487415690.35,39367,12.13,73238.0,-5.17,-13.51,-15.25,0,*5E
1487415691.58,39368,12.13,73236.8,-5.17,-13.23,-15.35,0,*55
1487415692.84,39369,12.13,73238.8,-5.13,-13.87,-16.69,0,*54
1487415694.05,39370,12.13,73238.0,-5.17,-13.47,-16.75,0,*59
1487415695.27,39371,12.13,73240.5,-5.17,-14.19,-17.87,0,*58
1487415696.5,39372,12.13,73238.0,-5.19,-14.89,-18.99,0,*5C
1487415697.76,39373,12.13,73242.3,-5.19,-14.51,-18.41,0,*5D
1487415699.02,39374,12.13,73240.0,-5.17,-14.83,-19.23,0,*5E
1487415700.25,39375,12.13,73236.3,-5.19,-15.71,-20.69,0,*59
1487415701.46,39376,12.13,73242.5,-5.21,-15.25,-20.73,0,*5B
1487415702.68,39377,12.13,73236.5,-5.21,-15.53,-21.17,0,*58
1487415703.93,39378,12.13,73238.0,-5.19,-15.53,-20.89,0,*5A
1487415705.18,39379,12.13,73240.3,-5.19,-15.99,-21.67,0,*5C
1487415706.38,39380,12.13,73240.5,-5.21,-15.99,-22.67,0,*52
1487415707.62,39381,12.13,73236.8,-5.19,-16.59,-23.75,0,*55
1487415708.85,39382,12.13,73238.5,-5.19,-16.89,-22.87,0,*57
1487415710.11,39383,12.13,73242.0,-5.19,-16.45,-21.83,0,*51
1487415711.38,39384,12.13,73238.5,-5.19,-16.41,-21.67,0,*58
1487415712.62,39385,12.13,73238.0,-5.21,-16.79,-21.83,0,*53
1487415713.88,39386,12.13,73238.8,-5.19,-16.55,-21.33,0,*5E
1487415715.11,39387,12.13,73240.8,-5.21,-15.99,-20.99,0,*56
1487415716.38,39388,12.13,73236.0,-5.19,-15.89,-20.39,0,*59
1487415717.64,39389,12.13,73236.5,-5.19,-15.81,-20.69,0,*55
1487415718.87,39390,12.13,73234.5,-5.21,-15.71,-21.57,0,*55
1487415720.1,39391,12.13,73240.3,-5.21,-16.31,-22.93,0,*58
1487415721.32,39392,12.13,73236.8,-5.21,-16.55,-23.09,0,*5B
1487415722.6,39393,12.13,73238.8,-5.19,-16.31,-21.57,0,*5A
1487415723.88,39394,12.13,73236.8,-5.19,-16.17,-20.99,0,*5A
1487415725.17,39395,12.13,73236.0,-5.19,-15.89,-21.27,0,*5B
1487415726.43,39396,12.13,73236.3,-5.19,-15.67,-21.67,0,*5C
1487415727.69,39397,12.13,73240.3,-5.19,-15.81,-22.07,0,*50
1487415728.98,39398,12.13,73236.3,-5.19,-16.13,-23.03,0,*52
1487415730.22,39399,12.13,73236.5,-5.19,-16.41,-23.75,0,*55
1487415731.48,39400,12.13,73238.0,-5.17,-16.69,-25.55,0,*52
1487415732.69,39401,12.13,73236.8,-5.17,-17.87,-26.61,0,*56
1487415733.9,39402,12.13,73238.0,-5.17,-18.17,-25.09,0,*5E
1487415735.17,39403,12.13,73236.8,-5.17,-17.25,-24.25,0,*5E
1487415736.42,39404,12.13,73238.8,-5.19,-17.21,-24.97,0,*5A
1487415737.67,39405,12.13,73238.5,-5.19,-17.49,-25.61,0,*5D
1487415738.9,39406,12.13,73240.0,-5.21,-17.63,-26.45,0,*58
1487415740.1,39407,12.13,73236.5,-5.21,-17.73,-27.13,0,*5A
1487415741.34,39408,12.13,73234.8,-5.21,-18.25,-27.35,0,*5D
1487415742.58,39409,12.13,73232.3,-5.19,-17.83,-25.35,0,*56
1487415743.86,39410,12.13,73234.0,-5.19,-17.17,-23.99,0,*53
1487415745.12,39411,12.13,73236.5,-5.19,-17.49,-26.13,0,*5E
1487415746.38,39412,12.13,73236.5,-5.19,-17.79,-26.87,0,*53
1487415747.64,39413,12.13,73232.3,-5.21,-17.59,-25.81,0,*5E
1487415748.93,39414,12.13,73232.5,-5.19,-17.17,-25.29,0,*5A
1487415750.19,39415,12.13,73232.3,-5.19,-17.31,-23.85,0,*5F
1487415751.45,39416,12.13,73234.5,-5.19,-16.41,-20.99,0,*54
1487415752.69,39417,12.13,73238.0,-5.17,-15.63,-19.57,0,*50
1487415753.95,39418,12.13,73238.8,-5.19,-15.53,-19.41,0,*55
1487415755.15,39419,12.13,73238.8,-5.17,-15.49,-18.79,0,*5B
1487415756.4,39420,12.13,73234.0,-5.19,-15.57,-19.03,0,*5C
1487415757.66,39421,12.13,73230.3,-5.21,-16.27,-19.41,0,*54
1487415758.92,39422,12.13,73232.3,-5.21,-15.01,-17.79,0,*55
1487415760.2,39423,12.13,73228.0,-5.19,-14.79,-17.21,0,*5C
1487415761.46,39424,12.13,73230.0,-5.19,-14.83,-17.31,0,*5F
1487415762.7,39425,12.13,73230.3,-5.21,-14.29,-17.07,0,*50
1487415763.95,39426,12.13,73228.0,-5.21,-14.23,-17.45,0,*5F
1487415765.21,39427,12.13,73232.0,-5.21,-14.43,-17.63,0,*5C
1487415766.47,39428,12.13,73230.3,-5.21,-14.83,-17.63,0,*5F
1487415767.76,39429,12.13,73238.0,-5.19,-14.43,-16.31,0,*5F
1487415768.99,39430,12.13,73236.0,-5.19,-13.93,-14.65,0,*5E
1487415770.2,39431,12.13,73234.5,-5.21,-13.55,-14.23,0,*5C
1487415771.47,39432,12.13,73232.3,-5.19,-14.11,-15.01,0,*52
1487415772.71,39433,12.13,73234.8,-5.21,-13.55,-14.51,0,*5B
1487415773.95,39434,12.13,73232.5,-5.19,-14.11,-15.29,0,*5E
1487415775.2,39435,12.13,73230.8,-5.21,-14.15,-15.43,0,*5C
1487415776.48,39436,12.13,73230.0,-5.21,-13.83,-15.39,0,*5A
1487415777.75,39437,12.13,73228.0,-5.25,-14.01,-16.23,0,*5A
1487415778.98,39438,12.13,73226.0,-5.21,-13.65,-16.13,0,*57
1487415780.22,39439,12.13,73224.3,-5.21,-13.65,-16.27,0,*51
1487415781.43,39440,12.13,73230.8,-5.25,-14.33,-17.35,0,*5D
1487415782.63,39441,12.13,73228.5,-5.25,-14.69,-18.41,0,*5F
1487415783.87,39442,12.13,73226.3,-5.25,-14.47,-18.79,0,*5B
1487415785.09,39443,12.13,73226.5,-5.25,-14.29,-19.17,0,*5B
1487415786.3,39444,12.13,73230.3,-5.25,-15.15,-20.93,0,*54
1487415787.56,39445,12.13,73232.8,-5.27,-15.35,-22.03,0,*5E
1487415788.79,39446,12.13,73234.5,-5.27,-16.59,-24.57,0,*53
1487415790.08,39447,12.13,73232.0,-5.27,-17.55,-24.87,0,*52
1487415791.31,39448,12.13,73238.3,-5.27,-16.45,-22.03,0,*57
1487415792.54,39449,12.13,73238.0,-5.31,-15.99,-22.03,0,*53
1487415793.84,39450,12.13,73238.0,-5.31,-16.13,-21.87,0,*55
1487415795.08,39451,12.13,73232.0,-5.29,-16.09,-21.43,0,*5E
1487415796.34,39452,12.13,73232.3,-5.29,-17.41,-24.11,0,*52
1487415797.58,39453,12.13,73230.3,-5.31,-18.83,-27.13,0,*5A
1487415798.79,39454,12.13,73228.8,-5.35,-19.71,-28.85,0,*55
1487415800.02,39455,12.13,73230.5,-5.35,-20.19,-28.31,0,*5F
1487415801.23,39456,12.13,73222.3,-5.39,-19.75,-26.87,0,*53
1487415802.51,39457,12.13,73230.3,-5.41,-18.59,-25.45,0,*5F
1487415803.78,39458,12.13,73230.8,-5.41,-18.31,-24.93,0,*54
1487415804.99,39459,12.13,73226.0,-5.43,-18.49,-25.87,0,*5C
1487415806.22,39460,12.13,73226.8,-5.43,-18.31,-24.57,0,*55
1487415807.46,39461,12.13,73226.5,-5.43,-16.93,-22.31,0,*54
1487415808.71,39462,12.13,73230.8,-5.45,-16.89,-23.65,0,*5A
1487415809.94,39463,12.13,73230.0,-5.45,-17.31,-26.49,0,*52
1487415811.18,39464,12.13,73228.0,-5.43,-18.35,-29.67,0,*5B
1487415812.44,39465,12.13,73232.8,-5.45,-18.49,-29.39,0,*5C
1487415813.7,39466,12.13,73232.5,-5.45,-18.93,-29.57,0,*50
1487415814.94,39467,12.13,73236.0,-5.43,-18.49,-27.99,0,*5C
1487415816.23,39468,12.13,73234.5,-5.45,-18.35,-26.77,0,*5F
1487415817.44,39469,12.13,73234.8,-5.43,-18.65,-27.07,0,*5B
1487415818.71,39470,12.13,73230.5,-5.45,-19.31,-28.53,0,*5B
1487415819.97,39471,12.13,73230.5,-5.45,-18.93,-28.37,0,*51
1487415821.23,39472,12.13,73228.3,-5.45,-18.25,-26.77,0,*55
1487415822.47,39473,12.13,73230.8,-5.45,-17.49,-25.13,0,*50
1487415823.74,39474,12.13,73232.0,-5.45,-17.17,-25.13,0,*5C
1487415825.01,39475,12.13,73232.0,-5.45,-18.41,-26.77,0,*50
1487415826.25,39476,12.13,73234.8,-5.45,-17.35,-25.13,0,*5E
1487415827.51,39477,12.13,73234.5,-5.45,-17.21,-25.91,0,*50
1487415828.75,39478,12.13,73232.5,-5.45,-18.21,-27.77,0,*5A
1487415830.01,39479,12.13,73234.3,-5.49,-18.11,-26.97,0,*5B
1487415831.27,39480,12.13,73236.8,-5.45,-17.87,-27.83,0,*55
1487415832.53,39481,12.13,73236.8,-5.45,-18.11,-28.47,0,*53
1487415833.76,39482,12.13,73236.8,-5.49,-19.07,-30.45,0,*51
1487415834.99,39483,12.13,73234.3,-5.49,-19.07,-29.61,0,*5E
1487415836.23,39484,12.13,73236.0,-5.45,-18.79,-27.51,0,*50
1487415837.52,39485,12.13,73232.0,-5.49,-17.97,-24.83,0,*5E
1487415838.78,39486,12.13,73228.0,-5.45,-18.01,-24.93,0,*50
1487415840.04,39487,12.13,73230.8,-5.45,-17.21,-24.31,0,*54
1487415841.31,39488,12.13,73228.5,-5.45,-17.45,-25.35,0,*5C
1487415842.54,39489,12.13,73230.8,-5.45,-17.73,-26.49,0,*50
1487415843.8,39490,12.13,73232.0,-5.43,-18.31,-28.75,0,*56
1487415845.06,39491,12.13,73234.8,-5.45,-18.49,-28.09,0,*55
1487415846.32,39492,12.13,73240.8,-5.45,-19.75,-29.73,0,*54
1487415847.59,39493,12.13,73232.5,-5.45,-20.63,-30.77,0,*54
1487415848.85,39494,12.13,73234.5,-5.49,-19.91,-30.61,0,*5F
1487415850.11,39495,12.13,73234.8,-5.53,-20.15,-31.67,0,*54
1487415851.34,39496,12.13,73232.8,-5.51,-20.83,-31.67,0,*5A
1487415852.63,39497,12.13,73228.0,-5.53,-20.49,-31.39,0,*54
1487415853.87,39498,12.13,73230.8,-5.51,-20.43,-31.51,0,*5D
1487415855.13,39499,12.13,73226.3,-5.53,-20.05,-30.73,0,*5D
1487415856.42,39500,12.13,73230.5,-5.53,-20.19,-30.89,0,*54
1487415857.67,39501,12.13,73228.3,-5.51,-19.81,-30.17,0,*5B
1487415858.91,39502,12.13,73234.8,-5.55,-19.85,-30.67,0,*5F
1487415860.18,39503,12.13,73234.8,-5.55,-19.65,-30.89,0,*50
1487415861.39,39504,12.13,73232.5,-5.55,-19.71,-31.01,0,*53
1487415862.63,39505,12.13,73236.3,-5.55,-19.57,-30.67,0,*57
1487415863.91,39506,12.13,73232.8,-5.53,-19.65,-30.67,0,*53
1487415865.21,39507,12.13,73232.3,-5.53,-19.57,-30.73,0,*56
1487415866.47,39508,12.13,73234.3,-5.53,-19.57,-30.27,0,*58
1487415867.68,39509,12.13,73234.5,-5.51,-19.07,-29.79,0,*5D
1487415868.91,39510,12.13,73236.0,-5.53,-19.03,-30.11,0,*55
1487415870.15,39511,12.13,73232.0,-5.51,-19.31,-30.45,0,*56
1487415871.43,39512,12.13,73232.3,-5.53,-19.13,-30.01,0,*57
1487415872.68,39513,12.13,73234.5,-5.51,-18.89,-29.01,0,*5E
1487415873.93,39514,12.13,73232.3,-5.51,-19.17,-30.61,0,*51
1487415875.13,39515,12.13,73234.0,-5.51,-19.91,-31.33,0,*58
1487415876.41,39516,12.13,73228.8,-5.53,-19.27,-30.45,0,*54
1487415877.65,39517,12.13,73234.8,-5.51,-19.23,-30.27,0,*57
1487415878.91,39518,12.13,73234.0,-5.51,-19.31,-30.39,0,*54
1487415880.15,39519,12.13,73232.5,-5.51,-19.31,-30.27,0,*5A
1487415881.36,39520,12.13,73232.8,-5.51,-19.17,-30.11,0,*51
1487415882.6,39521,12.13,73236.0,-5.51,-19.07,-29.89,0,*58
1487415883.83,39522,12.13,73234.5,-5.49,-19.51,-30.23,0,*59
1487415885.05,39523,12.13,73236.5,-5.51,-19.47,-30.45,0,*56
1487415886.31,39524,12.13,73234.5,-5.51,-19.23,-30.05,0,*57
1487415887.52,39525,12.13,73232.3,-5.51,-19.03,-29.95,0,*55
1487415888.75,39526,12.13,73238.3,-5.51,-18.99,-29.89,0,*59
1487415889.99,39527,12.13,73236.0,-5.51,-18.99,-30.05,0,*54
1487415891.2,39528,12.13,73238.0,-5.51,-19.07,-30.11,0,*58
1487415892.46,39529,12.13,73236.0,-5.51,-19.23,-30.51,0,*5B
1487415893.67,39530,12.13,73236.3,-5.51,-18.99,-30.11,0,*57
1487415894.88,39531,12.13,73236.3,-5.51,-19.03,-30.27,0,*51
1487415896.09,39532,12.13,73238.0,-5.51,-18.99,-29.95,0,*51
1487415897.32,39533,12.13,73238.0,-5.49,-19.03,-30.23,0,*5E
1487415898.57,39534,12.13,73236.3,-5.49,-19.81,-31.33,0,*53
1487415899.8,39535,12.13,73232.3,-5.51,-20.09,-31.61,0,*56
1487415901.06,39536,12.13,73234.0,-5.53,-19.41,-30.45,0,*56
1487415902.31,39537,12.13,73236.5,-5.51,-19.31,-30.83,0,*58
1487415903.56,39538,12.13,73236.8,-5.51,-19.51,-30.77,0,*5A
1487415904.83,39539,12.13,73236.3,-5.53,-19.95,-31.23,0,*51
1487415906.07,39540,12.13,73236.8,-5.51,-19.23,-30.45,0,*51
1487415907.33,39541,12.13,73232.5,-5.51,-19.23,-30.51,0,*55
1487415908.58,39542,12.13,73236.5,-5.51,-19.31,-30.67,0,*50
1487415909.83,39543,12.13,73234.0,-5.51,-19.81,-31.51,0,*5E
1487415911.06,39544,12.13,73232.0,-5.51,-19.95,-31.85,0,*55
1487415912.33,39545,12.13,73238.0,-5.53,-19.95,-31.51,0,*5F
1487415913.59,39546,12.13,73236.5,-5.51,-19.61,-30.95,0,*5C
1487415914.83,39547,12.13,73238.8,-5.51,-19.41,-30.67,0,*52
1487415916.07,39548,12.13,73234.3,-5.51,-19.95,-31.91,0,*5C
1487415917.31,39549,12.13,73234.8,-5.51,-19.95,-31.91,0,*5D
1487415918.52,39550,12.13,73238.3,-5.51,-20.25,-32.23,0,*5E
1487415919.78,39551,12.13,73236.5,-5.51,-21.23,-33.49,0,*55
1487415921.06,39552,12.13,73234.3,-5.53,-20.15,-31.91,0,*57
1487415922.35,39553,12.13,73236.3,-5.53,-19.65,-30.89,0,*53
1487415923.61,39554,12.13,73236.3,-5.53,-19.41,-31.01,0,*53
1487415924.9,39555,12.13,73232.8,-5.53,-20.19,-32.07,0,*50
1487415926.14,39556,12.13,73238.0,-5.53,-19.99,-31.33,0,*55
1487415927.35,39557,12.13,73236.5,-5.51,-19.51,-31.01,0,*53
1487415928.57,39558,12.13,73236.5,-5.51,-19.37,-30.67,0,*5D
1487415929.79,39559,12.13,73236.8,-5.51,-19.17,-30.45,0,*5E
1487415931.07,39560,12.13,73236.0,-5.53,-19.81,-31.39,0,*53
1487415932.33,39561,12.13,73234.8,-5.53,-19.65,-31.01,0,*53
1487415933.57,39562,12.13,73236.5,-5.51,-19.17,-30.51,0,*53
1487415934.87,39563,12.13,73236.5,-5.53,-19.41,-30.73,0,*53
1487415936.1,39564,12.13,73238.0,-5.51,-19.17,-30.51,0,*55
1487415937.37,39565,12.13,73236.3,-5.53,-19.13,-30.51,0,*52
1487415938.61,39566,12.13,73236.0,-5.51,-19.17,-30.51,0,*57
1487415939.89,39567,12.13,73236.0,-5.49,-19.17,-30.77,0,*5B
1487415941.12,39568,12.13,73234.3,-5.51,-19.07,-30.51,0,*58
1487415942.42,39569,12.13,73234.3,-5.49,-19.31,-30.61,0,*56
1487415943.68,39570,12.13,73234.8,-5.45,-19.03,-30.39,0,*5E
1487415944.94,39571,12.13,73238.3,-5.49,-19.03,-30.39,0,*53
1487415946.2,39572,12.13,73238.8,-5.49,-19.51,-31.11,0,*5C
1487415947.47,39573,12.13,73238.0,-5.49,-19.31,-30.67,0,*5B
1487415948.72,39574,12.13,73238.3,-5.49,-19.07,-30.67,0,*59
1487415949.99,39575,12.13,73234.8,-5.49,-19.17,-30.61,0,*5F
1487415951.22,39576,12.13,73234.5,-5.49,-19.07,-30.45,0,*5B
1487415952.51,39577,12.13,73232.8,-5.45,-18.93,-30.39,0,*51
1487415953.77,39578,12.13,73238.8,-5.49,-19.47,-31.11,0,*51
1487415955.03,39579,12.13,73232.8,-5.49,-19.37,-30.95,0,*5A
1487415956.27,39580,12.13,73234.5,-5.49,-18.99,-30.27,0,*50
1487415957.53,39581,12.13,73236.8,-5.49,-19.03,-30.51,0,*52
1487415958.77,39582,12.13,73238.3,-5.45,-19.17,-31.05,0,*58
1487415960.07,39583,12.13,73238.5,-5.45,-18.93,-30.73,0,*54
1487415961.34,39584,12.13,73238.8,-5.45,-18.99,-30.61,0,*5A
1487415962.6,39585,12.13,73238.0,-5.45,-18.83,-30.39,0,*5D
1487415963.86,39586,12.13,73238.5,-5.45,-18.83,-30.39,0,*5E
1487415965.07,39587,12.13,73238.8,-5.43,-18.79,-30.27,0,*53
1487415966.28,39588,12.13,73238.3,-5.43,-18.79,-30.23,0,*58
1487415967.55,39589,12.13,73236.3,-5.45,-18.83,-30.05,0,*5E
1487415968.81,39590,12.13,73238.5,-5.45,-18.93,-30.23,0,*53
1487415970.05,39591,12.13,73238.3,-5.43,-18.83,-30.01,0,*55
1487415971.31,39592,12.13,73236.3,-5.45,-18.99,-30.01,0,*5B
1487415972.57,39593,12.13,73236.0,-5.43,-18.59,-27.39,0,*5D
1487415973.78,39594,12.13,73234.8,-5.43,-17.73,-26.23,0,*57
1487415975.01,39595,12.13,73236.8,-5.43,-17.31,-25.71,0,*54
1487415976.25,39596,12.13,73234.3,-5.43,-18.07,-28.63,0,*53
1487415977.46,39597,12.13,73234.0,-5.43,-18.45,-28.97,0,*5F
1487415978.72,39598,12.13,73238.5,-5.41,-18.31,-28.97,0,*51
1487415979.99,39599,12.13,73234.5,-5.41,-18.31,-29.67,0,*5E
1487415981.22,39600,12.13,73232.5,-5.43,-19.13,-30.67,0,*56
1487415982.43,39601,12.13,73234.0,-5.43,-18.73,-29.83,0,*52
1487415983.69,39602,12.13,73234.3,-5.41,-18.49,-29.89,0,*50
1487415984.9,39603,12.13,73234.0,-5.39,-18.73,-29.95,0,*5A
1487415986.13,39604,12.13,73232.5,-5.41,-18.45,-29.61,0,*5C
1487415987.37,39605,12.13,73232.3,-5.41,-18.49,-29.67,0,*57
1487415988.58,39606,12.13,73234.8,-5.39,-18.41,-29.61,0,*55
1487415989.84,39607,12.13,73232.0,-5.39,-18.93,-30.51,0,*50
1487415991.05,39608,12.13,73230.8,-5.39,-18.83,-29.95,0,*5E
1487415992.27,39609,12.13,73234.3,-5.39,-18.55,-29.61,0,*5F
1487415993.51,39610,12.13,73232.5,-5.39,-18.73,-29.89,0,*55
1487415994.74,39611,12.13,73234.3,-5.39,-18.83,-30.05,0,*57
1487415995.97,39612,12.13,73234.8,-5.39,-18.55,-29.45,0,*53
1487415997.17,39613,12.13,73234.3,-5.39,-18.17,-29.07,0,*52
1487415998.41,39614,12.13,73234.5,-5.35,-18.35,-29.67,0,*5F
1487415999.62,39615,12.13,73236.3,-5.39,-19.03,-30.33,0,*5F
1487416000.86,39616,12.13,73236.5,-5.39,-19.61,-31.45,0,*58
1487416002.09,39617,12.13,73234.5,-5.39,-18.83,-30.51,0,*50
1487416003.32,39618,12.13,73234.8,-5.39,-18.55,-30.23,0,*51
1487416004.56,39619,12.13,73234.8,-5.39,-18.69,-30.05,0,*5B
1487416005.77,39620,12.13,73234.5,-5.35,-18.41,-29.83,0,*51
1487416007.0,39621,12.13,73234.8,-5.35,-18.41,-29.73,0,*5F
1487416008.23,39622,12.13,73230.5,-5.35,-18.49,-29.17,0,*56
1487416009.46,39623,12.13,73232.5,-5.35,-18.65,-29.35,0,*59
1487416010.69,39624,12.13,73232.8,-5.35,-18.83,-30.05,0,*5D
1487416011.92,39625,12.13,73234.0,-5.33,-19.03,-30.27,0,*53
1487416013.17,39626,12.13,73236.3,-5.33,-18.83,-30.05,0,*59
1487416014.43,39627,12.13,73236.3,-5.35,-18.55,-29.73,0,*5C
1487416015.64,39628,12.13,73234.3,-5.35,-18.69,-29.83,0,*53
1487416016.88,39629,12.13,73232.0,-5.35,-19.17,-30.73,0,*5D
1487416018.16,39630,12.13,73238.0,-5.35,-19.27,-30.77,0,*52
1487416019.39,39631,12.13,73234.0,-5.35,-18.69,-30.01,0,*59
1487416020.64,39632,12.13,73232.3,-5.35,-19.17,-30.89,0,*52
1487416021.85,39633,12.13,73238.5,-5.39,-18.83,-30.33,0,*52
1487416023.08,39634,12.13,73234.5,-5.39,-19.07,-30.51,0,*5C
1487416024.32,39635,12.13,73232.8,-5.39,-19.07,-30.51,0,*5D
1487416025.54,39636,12.13,73234.0,-5.39,-18.59,-29.79,0,*56
1487416026.75,39637,12.13,73234.5,-5.35,-18.79,-30.27,0,*5A
1487416027.99,39638,12.13,73232.8,-5.35,-19.03,-30.89,0,*5D
1487416029.22,39639,12.13,73234.3,-5.33,-18.79,-30.45,0,*56
1487416030.43,39640,12.13,73234.3,-5.35,-18.83,-30.45,0,*5B
1487416031.64,39641,12.13,73232.8,-5.35,-19.17,-31.05,0,*53
1487416032.87,39642,12.13,73234.0,-5.35,-18.69,-30.39,0,*56
1487416034.14,39643,12.13,73236.0,-5.33,-18.79,-30.61,0,*5D
1487416035.37,39644,12.13,73232.3,-5.35,-18.49,-29.73,0,*54
1487416036.6,39645,12.13,73234.8,-5.33,-18.41,-29.67,0,*5E
1487416037.83,39646,12.13,73234.3,-5.33,-18.11,-29.57,0,*5B
1487416039.1,39647,12.13,73236.0,-5.31,-18.31,-29.95,0,*54
1487416040.36,39648,12.13,73236.3,-5.31,-18.49,-30.01,0,*51
1487416041.6,39649,12.13,73238.0,-5.31,-18.17,-29.67,0,*53
1487416042.89,39650,12.13,73236.8,-5.31,-17.93,-28.59,0,*54
1487416044.16,39651,12.13,73236.0,-5.29,-17.93,-29.35,0,*57
1487416045.4,39652,12.13,73232.8,-5.29,-18.35,-29.67,0,*50
1487416046.67,39653,12.13,73234.3,-5.31,-18.79,-30.17,0,*5F
1487416047.88,39654,12.13,73236.5,-5.29,-18.17,-29.07,0,*50
1487416049.12,39655,12.13,73238.0,-5.29,-19.51,-30.39,0,*57
1487416050.36,39656,12.13,73234.5,-5.31,-18.65,-29.45,0,*58
1487416051.58,39657,12.13,73234.5,-5.29,-17.87,-26.07,0,*5A
1487416052.81,39658,12.13,73234.5,-5.29,-16.89,-23.95,0,*54
1487416054.08,39659,12.13,73234.8,-5.29,-16.65,-24.41,0,*59
1487416055.35,39660,12.13,73234.8,-5.27,-16.83,-25.55,0,*51
1487416056.6,39661,12.13,73236.3,-5.27,-16.79,-26.55,0,*56
1487416057.87,39662,12.13,73236.5,-5.27,-17.11,-26.03,0,*59
1487416059.13,39663,12.13,73232.8,-5.27,-17.35,-24.87,0,*50
1487416060.37,39664,12.13,73238.5,-5.27,-17.35,-24.05,0,*5D
1487416061.62,39665,12.13,73238.0,-5.27,-17.49,-21.97,0,*59
1487416062.88,39666,12.13,73236.0,-5.27,-15.57,-18.17,0,*55
1487416064.14,39667,12.13,73232.0,-5.27,-15.89,-18.69,0,*5E
1487416065.38,39668,12.13,73228.5,-5.27,-14.89,-18.11,0,*5F
1487416066.61,39669,12.13,73230.5,-5.27,-14.89,-17.69,0,*5E
1487416067.87,39670,12.13,73232.0,-5.27,-14.75,-17.35,0,*5C
1487416069.09,39671,12.13,73234.8,-5.29,-14.33,-16.97,0,*58
1487416070.33,39672,12.13,73234.5,-5.29,-14.23,-17.17,0,*53
1487416071.63,39673,12.13,73230.8,-5.31,-14.47,-18.35,0,*56
1487416072.9,39674,12.13,73226.3,-5.31,-14.01,-18.73,0,*51
1487416074.19,39675,12.13,73226.0,-5.31,-13.79,-19.23,0,*5C
1487416075.46,39676,12.13,73230.3,-5.29,-14.01,-19.41,0,*5A
1487416076.7,39677,12.13,73228.8,-5.29,-14.05,-19.91,0,*52
1487416077.96,39678,12.13,73232.0,-5.27,-14.93,-20.93,0,*54
1487416079.22,39679,12.13,73234.0,-5.27,-15.07,-21.03,0,*51
1487416080.48,39680,12.13,73230.3,-5.27,-15.15,-20.53,0,*50
1487416081.77,39681,12.13,73226.5,-5.27,-14.55,-19.65,0,*5B
1487416083.04,39682,12.13,73230.8,-5.27,-14.47,-20.29,0,*59
1487416084.28,39683,12.13,73230.5,-5.25,-14.89,-21.53,0,*54
1487416085.53,39684,12.13,73232.5,-5.25,-15.35,-23.69,0,*5E
1487416086.79,39685,12.13,73228.5,-5.19,-15.67,-25.03,0,*5D
1487416088.06,39686,12.13,73226.8,-5.21,-17.03,-26.29,0,*5E
1487416089.3,39687,12.13,73224.8,-5.21,-16.69,-25.13,0,*58
1487416090.56,39688,12.13,73230.8,-5.21,-16.69,-25.45,0,*54
1487416091.8,39689,12.13,73228.3,-5.21,-16.69,-25.65,0,*57
1487416093.06,39690,12.13,73228.0,-5.21,-17.59,-27.35,0,*5A
1487416094.32,39691,12.13,73226.3,-5.21,-17.63,-28.05,0,*5E
1487416095.56,39692,12.13,73226.8,-5.21,-17.35,-28.47,0,*58
1487416096.82,39693,12.13,73224.3,-5.19,-17.45,-28.53,0,*50
1487416098.11,39694,12.13,73226.0,-5.19,-17.59,-28.63,0,*59